AirNav   Air Wisconsin pilot careers
 
 769 users online  

PALP Alpine Airstrip
Deadhorse, Alaska, USA


FAA INFORMATION EFFECTIVE 31 JANUARY 2019

Location

FAA Identifier: AK15
Lat/Long: 70-20-39.4000N / 150-56-41.1000W
70-20.656667N / 150-56.685000W
70.3442778 / -150.9447500
(estimated)
Elevation: 21.4 ft. / 6.5 m (surveyed)
Variation: 17E (2020)
From city: 53 miles W of DEADHORSE, AK
Time zone: UTC -9 (UTC -8 during Daylight Saving Time)

Airport Operations

Airport use: Private use. Permission required prior to landing
Activation date: 02/2000
Control tower: no
ARTCC: ANCHORAGE CENTER
FSS: DEADHORSE FLIGHT SERVICE STATION [907-659-2505]
Alternate FSS: FAI FAIRBANKS FLIGHT SERVICE STATION [1-866-248-6516]
NOTAMs facility: FDC (NOTAM-D service not available)
Attendance: IREG
Wind indicator: lighted
Segmented circle: no
Lights: ACTVT MIRL RY 03/21; PAPI RYS 03 & 21, ODAL RY 03/21, & REIL RY 03 - 122.8.

Airport Communications

UNICOM: 122.8
WX ASOS at AQT (8 nm S): 135.35 (907-480-5577)

Nearby radio navigation aids

NDB name  Hdg/Dist  Freq  Var  ID
NUIQSUT VILLAGE349/8.024119EUQS ..- --.- ...
PITSAND256/26.529016EPYC .--. -.-- -.-.

Airport Services

Runway Information

Runway 3/21

Dimensions: 5005 x 100 ft. / 1526 x 30 m
Surface: gravel
Runway edge lights: medium intensity
RUNWAY 3  RUNWAY 21
Latitude: 70-20.407540N70-20.905088N
Longitude: 150-57.653662W150-55.715818W
Elevation: 20.8 ft.20.8 ft.
Traffic pattern: leftleft
Markings: nonprecision
Visual slope indicator: 4-light PAPI on left (3.15 degrees glide path)4-light PAPI on left (3.16 degrees glide path)
Approach lights: ODALS: omnidirectional approach lighting systemODALS: omnidirectional approach lighting system
Runway end identifier lights: yesyes
Touchdown point: yes, no lightsyes, no lights
Obstructions: 144 ft. tower, lightednone

Airport Ownership and Management from official FAA records

Ownership: Privately-owned
Owner: CONOCO PHILLIPS, INC
PO BOX 100360
ANCHORAGE, AK 99501-0360
Phone 907-670-4005
Manager: JOHN MURRY
700 G STREET
ANCHORAGE, AK 99501
Phone 907-670-4005
ADDITIONAL CONTACT: MIKE RODRIGUEZ 907-670-4048

Additional Remarks

E158 ASSOCIATED WITH SAWRS ONLY.

Instrument Procedures

There are no published instrument procedures at PALP.

Some nearby airports with instrument procedures:

PAQT - Nuiqsut Airport (8 nm S)
PASC - Deadhorse Airport (51 nm E)
 
Loc | Ops | Rwys | IFR | FBO | Links
Com | Nav | Svcs | Stats | Notes

Crowley
 
Area around PALP (Alpine Airstrip)
 
Road maps at: MapQuest Bing Google
 
Aerial photo
No photo
 
Sectional chart

 
Airport distance calculator
Flying to Alpine Airstrip? Find the distance to fly.

From to PALP

Sunrise and sunset
Times for 18-Feb-2019
 Local
(UTC-9)
 Zulu
(UTC)
Morning civil twilight08:1717:17
Sunrise09:2518:25
Sunset17:1002:10
Evening civil twilight18:1803:18

Current date and time
Zulu (UTC)  19-Feb-2019 04:03:26
Local (UTC-9)  18-Feb-2019 19:03:26
 
METAR
PALP 190345Z 23018KT 10SM BKN085 M15/M17 A2947
PAQT 
8nm S 
190253Z AUTO 24020KT 8SM SCT043 OVC085 M13/M14 A2947 RMK UPB07E08SNB08E20 SLP981 P0000 60000 T11281144 53007 TSNO VIA AUTODIAL
PPNU 
19nm E 
190355Z AUTO 24014G20KT 4SM SCT004 OVC024 M13/M15 A2947 RMK AO1
TAF
PAQT 
8nm S 
182248Z 1823/1918 23008KT 6SM -SN BR OVC035 FM190400 23010KT 4SM -SN BR OVC050 FM190600 24012KT 1 1/2SM -SN BR OVC015
NOTAMs
Click for the latest NOTAMs
NOTAMs are issued by the DoD/FAA and will open in a separate window not controlled by AirNav.

 

 
 

Would you like to see your business listed on this page?

 If your business provides an interesting product or service to pilots, flight crews, aircraft, or users of the Alpine Airstrip, you should consider listing it here.  To start the listing process, click on the button below
 
Add a business
 

Other Pages about Alpine Airstrip

Update a link
 
Copyright © AirNav, LLC. All rights reserved. Privacy Policy  Contact